2018-097E (43755 NORAD) Tracking and Keplerian Element Data

This shows tracking and keplerian element data for the satellite.

Feedback or suggestion? Click here.




ElementValue
Catalog43755
Name2018-097E
Epoch Orbit126
Epoch Day343.92737561
Epoch Year2018
RAAN126.7453
Inclination82.5124
Eccentricity0.0215553
Argument of Perigee248.8412
Mean Anonmoly108.9534
Mean Motion12.80815211
Decay Rate-4E-08
L11 43755U 18097E 18343.92737561 -.00000004 00000-0 -52204-4 0 9991
L22 43755 82.5124 126.7453 0215553 248.8412 108.9534 12.80815211 1264

Live tracking and technical data element details for 2018-097E (NORAD 43755). 2018-097E can be tracked NOW for your location showing map with azimuth and elevation plus other details from your city location.

Track the satellite on the map from your city or location and see movement details for azimuth, elevation, latitude, longitude, range, height, and movement on the map or in text.







IsCatalogInMostPopularTable: catalog: 43755, numindb: 5
Update: records affected: 1



GetName: 43755 2018-097E

Hit Count: updated at: Tue, 11 Dec 2018 02:13:45 GMT